Location: Newark
(37.8333°N, 119.5000°W)
Time: 23:47:36
(UTC+00:00)

A-11 Canister half - All Passes

Search period start: 19 August 2019 00:00
Search period end: 29 August 2019 00:00
Orbit: 1514 x 1686 km, 47.2° (Epoch: 18 August)

Date Brightness Start Highest point End Pass type
(mag) Time Alt. Az. Time Alt. Az. Time Alt. Az.
19 Aug - 01:21:16 10° SSW 01:29:58 45° SE 01:38:57 10° ENE daylight
19 Aug - 03:25:07 10° WSW 03:34:35 72° NNW 03:44:27 10° ENE visible
19 Aug - 05:31:31 10° WNW 05:40:50 49° N 05:50:29 10° ENE visible
19 Aug - 07:37:25 10° WNW 07:47:16 66° NNE 07:57:22 10° ESE visible
19 Aug - 09:42:40 10° WNW 09:52:20 56° SW 10:02:10 10° SSE visible
19 Aug - 11:51:24 10° W 11:55:50 14° WSW 12:00:17 10° SSW visible
20 Aug - 00:58:33 10° SSW 01:07:06 42° SE 01:15:55 10° ENE daylight
20 Aug - 03:02:11 10° WSW 03:11:38 75° NNW 03:21:28 10° ENE visible
20 Aug - 05:08:31 10° WNW 05:17:48 49° N 05:27:26 10° ENE visible
20 Aug - 07:14:29 10° WNW 07:24:16 64° NNE 07:34:19 10° ESE visible
20 Aug - 09:19:42 10° WNW 09:29:26 59° SW 09:39:19 10° SE visible
20 Aug - 11:27:50 10° W 11:33:00 15° WSW 11:38:11 10° SSW visible
21 Aug - 00:35:52 10° SSW 00:44:15 39° SE 00:52:53 10° ENE daylight
21 Aug - 02:39:14 10° WSW 02:48:40 78° NNW 02:58:30 10° ENE daylight
21 Aug - 04:45:31 10° WNW 04:54:46 49° N 05:04:22 10° ENE visible
21 Aug - 06:51:32 10° WNW 07:01:16 62° NNE 07:11:17 10° E visible
21 Aug - 08:56:44 10° WNW 09:06:30 63° SW 09:16:28 10° SE visible
21 Aug - 11:04:24 10° W 11:10:09 17° WSW 11:15:57 10° SSW visible
22 Aug - 00:13:12 10° SSW 00:21:25 37° SE 00:29:50 10° ENE daylight
22 Aug - 02:16:18 10° WSW 02:25:44 81° NNW 02:35:32 10° ENE daylight
22 Aug - 04:22:31 10° W 04:31:44 50° N 04:41:20 10° ENE visible
22 Aug - 06:28:36 10° WNW 06:38:15 60° NNE 06:48:12 10° E visible
22 Aug - 08:33:46 10° WNW 08:43:35 66° SW 08:53:35 10° SE visible
22 Aug - 10:41:04 10° W 10:47:18 19° SW 10:53:37 10° SSW visible
22 Aug - 23:50:33 10° S 23:58:34 34° SE 00:06:47 10° ENE daylight
23 Aug - 01:53:24 10° WSW 02:02:47 84° NNW 02:12:34 10° ENE daylight
23 Aug - 03:59:30 10° W 04:08:43 50° N 04:18:16 10° ENE visible
23 Aug - 06:05:39 10° WNW 06:15:15 59° NNE 06:25:09 10° E visible
23 Aug - 08:10:50 10° WNW 08:20:39 70° SW 08:30:42 10° SE visible
23 Aug - 10:17:47 10° W 10:24:27 20° SW 10:31:13 10° SSW visible
23 Aug - 23:27:55 10° S 23:35:44 32° SE 23:43:43 10° ENE daylight
24 Aug - 01:30:29 10° WSW 01:39:51 87° NNW 01:49:35 10° ENE daylight
24 Aug - 03:36:31 10° W 03:45:42 51° N 03:55:15 10° ENE visible
24 Aug - 05:42:41 10° WNW 05:52:14 57° NNE 06:02:05 10° E visible
24 Aug - 07:47:53 10° WNW 07:57:43 73° SW 08:07:48 10° SE visible
24 Aug - 09:54:33 10° W 10:01:36 22° SW 10:08:45 10° S visible
24 Aug - 23:05:19 10° S 23:12:54 29° SE 23:20:37 10° ENE daylight
25 Aug - 01:07:35 10° SW 01:16:55 89° SSE 01:26:37 10° ENE daylight
25 Aug - 03:13:31 10° W 03:22:41 51° N 03:32:13 10° ENE visible
25 Aug - 05:19:44 10° WNW 05:29:13 56° NNE 05:39:01 10° E visible
25 Aug - 07:24:56 10° WNW 07:34:47 77° SW 07:44:53 10° SE visible
25 Aug - 09:31:22 10° WNW 09:38:45 24° SW 09:46:14 10° S visible
25 Aug - 22:42:46 10° S 22:50:05 27° SE 22:57:31 10° ENE daylight
26 Aug - 00:44:42 10° SW 00:54:01 86° SE 01:03:40 10° ENE daylight
26 Aug - 02:50:30 10° W 02:59:40 52° N 03:09:11 10° ENE visible
26 Aug - 04:56:47 10° WNW 05:06:12 54° NNE 05:15:57 10° E visible
26 Aug - 07:02:00 10° WNW 07:11:50 80° SW 07:21:57 10° SE visible
26 Aug - 09:08:14 10° WNW 09:15:53 26° SW 09:23:41 10° S visible
26 Aug - 22:20:14 10° S 22:27:16 25° SE 22:34:23 10° ENE daylight
27 Aug - 00:21:49 10° SW 00:31:05 82° SE 00:40:42 10° ENE daylight
27 Aug - 02:27:30 10° W 02:36:40 53° NNW 02:46:11 10° ENE daylight
27 Aug - 04:33:49 10° WNW 04:43:11 53° NNE 04:52:53 10° E visible
27 Aug - 06:39:04 10° WNW 06:48:53 84° SW 06:59:00 10° SE visible
27 Aug - 08:45:07 10° WNW 08:53:01 28° SW 09:01:05 10° S visible
27 Aug - 21:57:44 10° S 22:04:27 23° SE 22:11:13 10° E daylight
27 Aug - 23:58:56 10° SW 00:08:11 78° SE 00:17:44 10° ENE daylight
28 Aug - 02:04:30 10° W 02:13:40 54° NNW 02:23:10 10° ENE daylight
28 Aug - 04:10:52 10° WNW 04:20:10 52° NNE 04:29:48 10° E visible
28 Aug - 06:16:09 10° WNW 06:25:57 87° SSW 06:36:04 10° SE visible
28 Aug - 08:22:01 10° WNW 08:30:09 30° SW 08:38:29 10° S visible
28 Aug - 21:35:16 10° S 21:41:37 21° SE 21:48:02 10° E daylight
28 Aug - 23:36:06 10° SW 23:45:17 74° SE 23:54:46 10° ENE daylight
